Location: Unspecified
(33.2940°N, 0.0000°E)
Time: 03:05:35
(UTC+00:00)

SPOT 1/Viking Rocket - Visible Passes

Search period start: 04 April 2026 00:00
Search period end: 14 April 2026 00:00
Orbit: 773 x 788 km, 98.2° (Epoch: 29 March)

Date Brightness Start Highest point End Pass type
(mag) Time Alt. Az. Time Alt. Az. Time Alt. Az.
4 Apr 6.4 19:15:22 10° SW 19:18:49 18° W 19:22:17 10° NW visible
5 Apr 5.3 18:41:35 10° SSW 18:46:22 38° W 18:51:12 10° NNW visible
7 Apr 6.4 19:18:09 10° SW 19:21:23 17° W 19:24:38 10° NW visible
8 Apr 5.4 18:44:12 10° SSW 18:48:55 35° W 18:53:40 10° NNW visible
10 Apr 6.5 19:20:56 10° SW 19:23:56 15° W 19:26:58 10° WNW visible
11 Apr 5.6 18:46:50 10° SSW 18:51:28 33° W 18:56:08 10° NNW visible
13 Apr 6.5 19:23:46 10° SW 19:26:30 14° W 19:29:15 10° WNW visible
